WXPETECO Weather Reports


Display with metric or nautical units.
time (UTC)temp
F
wind
direction
speed
MPH
gust
MPH
rain 1hr
in
rain 24hr
in
rain mn
in
humidity
%
barometer
mb
20260504190034 50 227 0.0 3.0 0.00 0.00 0.00 58 1006.0
20260504184537 49 228 0.0 1.0 0.00 0.00 0.00 62 1006.0
20260504183036 50 306 1.0 6.0 0.00 0.00 0.00 59 1006.2
20260504181531 52 303 4.0 20.0 0.00 0.00 0.00 43 1006.7
20260504180028 56 284 5.0 15.0 0.00 0.00 0.00 37 1006.2
20260504174527 56 265 3.0 8.0 0.00 0.00 0.00 37 1006.1
20260504173025 55 223 2.0 12.0 0.00 0.00 0.00 37 1006.3
20260504171523 54 246 1.0 13.0 0.00 0.00 0.00 38 1006.5
20260504081503 36 313 0.0 3.0 0.00 0.00 0.00 43 1008.0
20260504044537 41 319 0.0 2.0 0.00 0.00 0.00 40 1009.2
20260504043049 42 34 0.0 1.0 0.00 0.00 0.00 40 1009.2
20260504041537 43 318 0.0 2.0 0.00 0.00 0.00 40 1009.1
20260504040039 44 315 0.0 1.0 0.00 0.00 0.00 40 1009.0
20260504034545 44 314 0.0 2.0 0.00 0.00 0.00 40 1008.9
20260504033035 45 312 1.0 3.0 0.00 0.00 0.00 40 1008.9
20260504031544 46 311 0.0 2.0 0.00 0.00 0.00 39 1008.8
20260504030041 47 311 0.0 1.0 0.00 0.00 0.00 39 1008.8
20260504024536 49 311 0.0 0.0 0.00 0.00 0.00 38 1008.5
20260504023033 50 311 0.0 2.0 0.00 0.00 0.00 36 1008.4
20260504021541 52 302 0.0 4.0 0.00 0.00 0.00 35 1008.3
20260504020037 54 214 0.0 0.0 0.00 0.00 0.00 34 1008.2
20260504014532 54 214 0.0 0.0 0.00 0.00 0.00 32 1008.0
20260504013035 55 214 0.0 3.0 0.00 0.00 0.00 31 1008.0
20260504011530 55 302 0.0 2.0 0.00 0.00 0.00 32 1008.2
20260504010029 55 179 2.0 6.0 0.00 0.00 0.00 31 1008.1
20260504004539 55 262 4.0 11.0 0.00 0.00 0.00 31 1008.4
20260504003028 56 305 5.0 14.0 0.00 0.00 0.00 30 1008.4
20260504001533 56 307 4.0 20.0 0.00 0.00 0.00 31 1008.7
20260504000026 58 315 3.0 18.0 0.00 0.00 0.00 30 1008.7
20260503234527 60 248 2.0 9.0 0.00 0.00 0.00 26 1008.5
20260503233025 60 317 2.0 12.0 0.00 0.00 0.00 21 1008.2
20260503231524 60 247 2.0 7.0 0.00 0.00 0.00 23 1008.3
20260503230023 60 123 0.0 4.0 0.00 0.00 0.00 24 1008.2
20260503224522 58 217 1.0 6.0 0.00 0.00 0.00 26 1008.6
20260503223021 60 296 5.0 12.0 0.00 0.00 0.00 25 1008.6
20260503221519 60 302 3.0 13.0 0.00 0.00 0.00 21 1008.3
20260503220029 60 306 5.0 12.0 0.00 0.00 0.00 19 1008.6
20260503214529 61 191 3.0 9.0 0.00 0.00 0.00 19 1008.6
20260503213028 60 277 5.0 13.0 0.00 0.00 0.00 19 1008.8
20260503211516 61 338 8.0 17.0 0.00 0.00 0.00 18 1008.9
20260503210017 62 149 4.0 11.0 0.00 0.00 0.00 17 1008.9
20260503204521 62 244 2.0 14.0 0.00 0.00 0.00 20 1009.3
20260503203012 62 323 9.0 17.0 0.00 0.00 0.00 17 1009.6
20260503201508 62 296 7.0 16.0 0.00 0.00 0.00 16 1009.8
20260503200007 62 344 10.0 19.0 0.00 0.00 0.00 16 1009.8
20260503194504 61 302 7.0 20.0 0.00 0.00 0.00 17 1010.1
20260503193005 62 318 8.0 18.0 0.00 0.00 0.00 17 1010.1
20260503191612 61 317 9.0 20.0 0.00 0.00 0.00 16 1010.5